Temperature
21 21 21 21 18 16 18 19 19 19 19 19 19 19 18 17 18 18 18 18 18 18 17 17 17 17 17 17 17 17 18 18 18 18 18 18 18 18 18 18 18 18 18 18 18 18 18 18 18
21 21 21 20 17 17 19 19 19 19 19 19 19 19 18 17 18 18 18 17 18 17 17 17 17 17 17 17 17 17 17 17 18 18 18 18 18 18 18 18 18 18 18 18 18 18 18 18 18
21 21 21 16 17 17 19 19 19 19 20 20 19 18 18 18 18 18 18 18 18 18 17 17 17 17 17 17 17 17 17 17 17 17 17 17 17 17 17 18 18 18 18 18 18 17 17 18 17
21 21 20 17 19 18 19 19 19 19 20 19 19 18 18 18 18 18 18 18 18 18 17 17 17 17 17 17 17 17 17 17 17 17 17 17 17 17 17 17 17 17 17 17 17 17 17 17 17
21 21 17 17 19 19 19 19 20 19 19 19 19 18 18 18 18 18 18 18 18 18 17 17 17 17 17 17 17 17 17 17 17 17 17 17 17 17 17 17 17 17 17 17 17 17 17 17 17
21 18 17 18 19 19 19 20 20 19 19 19 19 18 18 18 18 18 18 18 18 18 17 17 17 17 17 17 17 17 17 17 17 17 17 17 17 17 17 17 17 17 17 17 17 17 17 17 17
20 17 18 18 19 20 20 20 20 19 19 19 19 17 18 18 18 18 18 18 18 18 17 17 17 17 17 17 17 17 17 17 17 17 17 17 17 17 17 17 17 17 17 17 17 17 17 16 17
21 17 18 18 19 20 20 20 20 20 19 20 19 18 18 18 18 18 18 18 18 17 17 17 17 17 17 17 17 17 17 17 17 17 17 17 17 17 16 16 16 16 16 16 16 16 16 16 16
21 17 18 19 19 20 20 20 20 20 20 19 19 19 19 19 18 18 18 18 18 17 17 17 17 17 17 17 17 17 17 17 17 16 16 16 16 16 16 16 16 16 16 16 16 16 16 16 16
20 17 19 20 19 20 20 20 20 20 19 19 19 19 19 19 18 18 18 18 18 18 18 17 17 17 17 17 17 17 17 17 16 16 16 16 16 16 16 16 16 16 16 16 16 16 16 16 16
20 19 20 20 21 21 20 20 20 19 18 19 19 19 19 18 18 18 18 18 18 18 18 18 17 17 17 17 17 17 17 16 16 16 16 16 16 16 16 16 16 16 16 16 16 16 16 16 16
20 20 20 21 21 21 20 20 20 19 20 21 20 20 19 19 19 18 18 18 18 18 18 18 17 17 17 17 17 17 16 16 16 16 16 16 16 16 16 16 16 16 16 16 16 16 16 16 15
20 20 21 21 21 21 20 19 19 19 20 20 20 19 19 19 19 19 18 18 18 18 18 18 17 17 17 17 17 17 16 16 16 16 16 16 16 16 16 16 16 15 15 15 15 16 15 15 15
20 20 20 21 21 20 20 19 19 19 20 20 19 19 19 19 19 19 18 18 18 18 18 18 17 17 17 17 17 17 16 16 16 16 16 16 16 16 15 15 15 15 15 15 15 15 15 15 15
21 20 20 20 20 20 20 19 18 19 19 19 19 19 19 19 19 19 19 19 18 18 18 18 17 17 17 17 17 17 16 16 16 16 16 16 16 16 15 15 15 15 15 15 15 15 15 15 15
20 19 19 19 19 20 19 18 18 19 19 18 18 18 19 19 19 19 19 18 18 18 18 18 17 17 17 17 17 17 16 16 16 16 16 16 16 16 15 15 15 15 15 15 15 15 15 15 15
18 18 19 19 19 19 19 18 18 19 18 18 18 18 18 18 19 19 19 18 18 18 18 18 17 17 17 17 17 17 16 16 16 16 16 16 16 16 15 15 15 15 15 15 15 15 15 15 14
18 18 19 19 19 18 18 17 17 18 18 17 17 18 18 18 18 19 19 18 18 18 18 18 17 17 17 17 17 16 16 16 16 16 16 16 16 15 15 15 15 15 15 15 15 15 14 14 14
19 19 18 18 19 18 17 17 17 17 17 17 17 17 18 18 18 18 18 18 18 18 18 18 17 17 17 17 17 17 16 16 16 16 16 16 16 15 15 15 15 15 15 15 14 14 14 14 14
19 18 18 18 19 18 17 17 17 16 16 17 17 17 18 18 18 18 18 18 18 18 18 18 18 17 17 17 17 17 16 16 16 16 16 16 15 15 15 15 15 15 15 14 14 14 14 14 14
18 18 18 18 18 18 18 17 17 17 17 17 17 17 18 18 18 18 18 18 18 18 18 18 18 17 17 17 17 16 16 16 16 16 16 15 15 15 15 15 15 15 15 14 14 14 14 14 14
18 19 19 18 17 16 18 16 17 16 16 16 17 17 17 18 18 18 18 18 18 18 18 18 18 17 17 17 17 16 16 16 16 16 15 15 15 15 15 15 15 15 14 14 14 14 14 14 14
18 19 18 18 17 16 16 16 16 16 16 16 16 17 17 18 18 18 18 18 18 18 18 18 17 17 17 17 17 16 16 16 16 16 15 15 15 15 15 15 14 14 14 14 14 14 14 14 14
18 17 16 15 15 16 16 16 16 15 16 16 16 17 17 18 18 18 18 18 18 18 18 18 17 17 17 17 16 16 16 16 16 15 15 15 15 15 15 14 14 14 14 14 14 14 13 13 13
18 16 16 16 15 15 16 16 15 16 16 16 16 17 17 17 18 18 18 18 18 18 18 18 17 17 17 17 16 16 16 16 16 16 15 15 15 15 14 14 14 14 14 14 14 13 13 13 13
17 16 16 16 15 15 15 15 16 16 16 17 17 17 17 17 18 18 18 18 18 18 18 17 17 17 17 17 16 16 16 16 16 15 15 15 15 15 14 14 14 14 14 14 13 13 13 13 13
17 15 16 15 15 15 15 15 15 16 16 16 16 16 16 17 17 18 18 18 17 17 17 17 17 17 17 17 16 16 16 16 15 15 15 15 15 15 14 14 14 14 14 13 13 13 13 13 13
16 15 14 14 15 15 15 15 15 16 16 15 15 15 16 17 17 17 17 17 17 17 17 17 17 17 17 17 16 16 16 15 15 15 15 15 15 14 14 14 14 14 14 13 13 13 13 13 12
16 15 14 13 14 14 15 15 16 15 15 15 15 15 16 16 17 17 17 17 17 17 17 17 17 17 16 16 16 16 16 15 15 15 15 15 14 14 14 14 14 14 13 13 13 13 13 13 12
16 15 14 15 14 13 13 14 16 15 15 15 15 15 16 16 16 16 17 17 17 17 17 16 16 16 16 16 16 16 15 15 15 15 15 14 14 14 14 14 14 13 13 13 13 13 13 12 12
Wind_Speed
2 4 3 4 6 6 3 2 0 1 2 3 4 6 6 4 2 3 1 2 3 2 2 3 5 6 7 7 8 8 9 9 9 9 9 9 10 10 10 11 11 10 10 10 10 10 11 11 11
2 2 4 5 5 4 1 1 1 1 4 3 4 5 5 4 2 3 1 2 3 3 2 3 5 6 7 7 8 8 8 9 9 9 9 9 9 9 10 10 10 10 10 10 10 11 11 11 11
2 4 4 5 4 4 3 1 2 3 4 2 4 4 4 3 2 3 3 4 3 2 2 3 5 6 7 7 7 8 8 8 9 9 9 8 9 9 10 10 10 10 10 10 10 10 11 11 11
3 5 5 5 3 2 2 2 3 4 3 4 4 4 3 1 4 4 5 5 4 2 2 3 5 6 7 7 7 8 8 8 8 8 9 9 9 9 9 9 9 9 10 10 10 10 11 11 11
4 5 6 4 2 2 0 2 3 4 3 3 4 4 2 3 4 7 6 5 4 2 2 3 6 7 7 7 7 7 8 8 8 8 8 9 9 9 9 9 9 9 10 10 10 11 11 11 10
5 5 5 2 1 2 1 2 3 5 4 4 4 4 1 1 5 6 6 5 4 3 3 3 5 6 6 7 7 7 7 8 8 8 8 9 9 9 9 9 9 10 10 11 11 11 11 11 11
5 5 4 3 0 1 1 2 4 5 4 3 5 5 1 1 3 5 5 5 4 4 3 3 3 5 6 6 7 7 8 8 8 9 9 9 9 10 10 10 10 10 11 11 11 12 12 12 11
5 5 3 2 2 1 1 2 3 4 3 4 4 6 4 5 5 6 6 5 4 3 3 2 3 4 4 5 6 7 8 8 8 9 10 10 10 10 11 11 11 11 11 12 12 12 13 12 12
4 5 2 3 4 2 1 2 2 2 5 3 2 3 4 8 9 8 5 4 3 3 2 2 2 3 4 4 5 6 7 8 8 8 9 9 9 9 9 11 12 12 11 12 12 13 13 13 12
4 3 4 4 5 4 2 3 3 4 3 2 2 3 7 9 9 8 6 5 4 3 2 2 1 2 3 3 5 6 6 7 7 7 7 8 8 8 8 10 12 12 12 12 12 13 12 11 10
3 4 2 1 3 4 3 2 2 6 3 5 6 7 9 9 8 8 7 6 6 4 3 2 2 2 3 3 4 4 5 5 6 6 7 7 7 7 8 8 9 9 10 10 10 11 10 9 8
2 1 2 1 3 3 3 3 3 3 4 5 7 9 10 10 9 8 8 6 4 4 3 3 3 3 3 3 3 3 3 3 3 4 6 6 4 4 5 5 6 7 7 7 7 7 8 9 9
1 0 1 1 3 3 4 3 3 1 1 4 7 8 8 8 7 5 5 5 5 5 4 4 4 4 3 3 2 3 2 2 3 4 4 5 3 3 3 3 4 5 5 5 5 6 6 6 7
1 1 1 2 2 2 4 1 2 2 3 6 7 7 7 7 6 5 5 5 5 5 5 4 5 4 4 3 3 2 2 3 3 3 3 4 4 3 3 3 3 3 4 4 5 5 5 5 5
2 3 4 2 1 1 4 2 2 2 5 5 5 6 6 6 6 6 7 7 6 5 5 5 5 5 4 4 3 3 3 3 3 2 3 3 4 4 3 3 2 2 4 5 5 5 5 5 5
4 4 1 3 1 1 5 3 5 2 6 5 4 4 5 5 5 5 5 5 5 5 5 5 5 5 5 4 3 3 3 3 2 3 3 4 4 5 4 3 2 3 4 4 3 3 4 4 4
3 1 2 3 1 2 3 4 4 2 6 5 5 5 5 4 3 4 4 5 5 6 6 5 5 5 5 4 3 3 3 3 2 3 3 3 4 5 5 3 2 3 4 3 3 3 3 3 3
3 2 2 3 2 3 3 5 5 2 5 6 5 5 5 6 7 5 4 4 4 5 5 5 5 5 5 4 3 3 3 2 2 2 3 4 4 4 5 4 3 4 3 3 3 3 3 3 2
3 3 3 4 2 2 4 5 6 3 3 4 4 5 7 8 7 3 3 3 4 4 5 6 5 4 4 3 3 3 2 1 1 1 3 4 4 5 5 3 3 3 3 3 3 3 4 3 2
2 2 3 4 1 3 3 5 5 3 5 5 6 7 7 6 4 4 4 4 4 5 5 6 6 5 5 4 3 3 3 2 1 1 2 3 4 5 4 4 3 3 3 3 3 3 2 2 2
2 4 4 4 2 1 0 5 4 3 3 3 4 5 6 7 7 6 6 6 5 6 6 6 6 6 5 4 4 4 3 2 2 1 0 1 3 4 4 4 4 3 3 3 3 3 3 2 2
4 5 5 3 1 2 1 3 6 4 3 4 4 4 5 7 7 7 7 7 7 7 6 5 5 5 5 5 5 6 4 3 3 2 1 1 2 3 4 4 4 3 3 3 3 3 2 3 1
5 1 1 1 3 1 1 2 7 2 4 6 5 5 6 6 7 7 8 8 7 6 5 5 5 5 5 5 6 6 4 3 2 2 2 1 1 2 3 4 4 3 3 3 3 3 2 2 2
3 5 5 5 4 2 4 4 6 4 6 5 4 4 5 5 6 6 6 5 5 5 5 5 5 4 5 5 5 5 6 5 4 3 3 2 1 1 1 3 3 3 3 3 3 3 3 2 2
4 5 3 4 2 5 2 3 7 6 5 6 6 5 4 4 5 5 5 6 6 6 6 6 6 5 4 5 5 5 6 6 6 5 4 3 2 1 2 3 3 3 3 3 3 3 3 3 3
3 7 6 4 4 4 2 5 6 4 3 3 3 3 3 3 4 5 6 6 6 6 6 7 7 6 5 5 5 4 5 4 4 4 4 4 4 3 3 3 3 3 3 3 3 3 2 2 3
4 3 5 5 2 2 5 6 7 1 2 1 1 1 1 2 4 4 4 5 5 6 6 7 7 5 5 5 4 4 4 4 4 4 4 3 3 3 3 3 3 3 3 4 4 3 3 3 2
4 6 5 5 4 4 5 5 5 5 3 1 1 0 2 1 2 3 4 4 5 5 5 5 5 6 5 5 4 4 4 4 4 4 4 4 3 3 4 4 4 4 3 4 4 3 3 3 2
3 3 4 4 4 5 3 6 4 5 4 3 3 3 3 3 2 2 3 3 4 3 4 4 4 4 4 5 4 3 3 3 4 4 4 4 3 3 4 4 4 4 4 4 4 4 4 4 2
5 6 6 4 4 4 3 7 4 3 3 2 3 3 3 2 2 2 2 2 3 3 3 4 4 4 4 4 4 4 3 3 3 3 3 3 4 3 4 4 4 4 4 4 5 5 4 5 4
Wind_Direction
60 81 79 58 55 53 54 347 342 36 48 29 64 83 96 90 108 140 269 125 139 118 98 98 94 87 83 80 78 79 75 72 74 77 80 82 83 85 85 83 84 85 84 86 88 91 90 89 85
78 81 57 58 79 75 353 323 135 126 141 130 71 75 76 68 81 114 125 157 129 116 98 104 104 95 88 82 77 77 78 78 79 80 81 84 85 85 85 83 82 83 84 87 89 89 87 87 85
95 58 75 69 94 144 167 195 153 90 119 110 72 59 84 110 133 157 178 148 116 106 103 119 114 104 96 87 81 78 79 80 81 81 82 85 90 88 85 85 85 85 85 85 90 88 86 84 82
78 47 55 71 89 202 186 174 144 115 79 60 94 72 61 69 162 159 140 133 123 113 107 120 113 106 98 90 83 80 79 80 80 82 81 81 85 87 85 86 89 91 89 87 89 88 85 83 80
61 73 62 56 7 324 281 166 151 111 90 68 94 93 46 356 109 127 133 136 132 123 102 115 110 102 96 93 89 83 81 81 82 83 83 80 79 78 80 81 88 90 89 87 86 85 83 80 77
57 67 81 86 334 337 2 134 120 97 99 98 101 102 51 51 121 137 134 129 123 116 93 104 112 105 100 95 89 86 84 80 81 82 83 80 76 71 72 76 83 85 84 83 84 82 80 78 76
99 90 119 141 96 0 123 127 126 126 125 148 134 113 115 170 152 131 119 115 105 96 87 69 78 88 91 88 87 85 82 79 81 84 82 80 76 71 68 70 76 80 79 81 81 78 75 73 72
115 102 95 117 131 286 117 112 121 131 137 127 127 139 179 194 145 114 101 95 94 86 82 70 64 73 73 71 81 84 81 77 80 81 78 73 67 67 67 66 70 74 75 76 76 74 71 68 67
88 79 136 189 174 202 125 105 80 87 105 103 132 165 174 139 128 116 106 93 103 109 85 83 76 70 72 74 77 74 75 71 70 69 71 64 56 58 62 64 68 70 72 71 71 71 69 65 62
87 125 208 203 175 160 143 128 133 99 98 96 77 74 115 128 138 144 151 157 161 167 157 130 120 96 79 78 71 66 68 67 66 66 66 64 58 54 58 61 64 63 62 62 64 66 64 59 55
121 166 206 189 165 145 136 123 118 129 162 196 177 156 143 145 153 162 171 173 177 174 165 156 154 121 97 83 80 73 72 70 68 69 71 71 62 56 52 52 52 53 55 54 52 55 56 57 57
112 218 174 181 151 139 146 132 116 154 207 191 165 153 152 159 170 177 178 177 171 167 176 166 152 132 116 105 97 93 88 83 79 74 78 78 68 60 56 57 51 53 56 56 53 54 55 58 57
113 248 51 107 116 126 115 126 151 224 236 116 125 133 154 167 178 182 176 170 167 176 187 180 156 148 130 113 114 110 107 106 106 95 88 93 91 77 67 62 59 56 60 66 62 60 55 53 52
181 99 59 55 89 120 127 128 122 243 127 118 135 158 174 180 178 170 176 176 180 187 193 176 158 155 137 133 130 123 131 124 112 110 110 111 113 106 87 71 64 63 65 72 74 67 65 58 58
98 77 28 1 104 158 111 14 242 225 136 143 167 183 187 193 184 190 193 187 186 184 182 175 166 151 144 145 139 130 135 128 119 124 120 123 123 118 108 89 73 69 79 81 78 67 66 62 57
55 71 27 297 137 139 128 240 267 198 151 168 188 198 200 202 201 213 201 185 178 168 168 177 165 148 148 141 130 126 127 123 121 127 125 129 130 127 117 102 88 85 87 87 79 68 63 56 50
35 100 233 288 219 134 152 235 271 179 164 183 196 202 209 220 231 230 205 185 175 169 164 164 156 151 152 137 118 112 112 109 114 118 123 125 127 130 122 113 111 104 91 80 87 70 77 68 51
223 216 245 255 254 139 179 244 271 204 178 199 205 205 209 221 233 226 200 188 173 160 156 158 153 148 141 123 104 91 82 76 93 114 124 124 125 125 119 115 113 111 96 81 83 86 69 70 59
189 206 256 264 231 170 219 248 261 222 200 216 216 212 215 225 233 214 181 168 152 152 155 159 157 159 145 136 138 134 141 125 80 98 116 125 130 130 123 117 115 113 111 113 107 99 85 60 50
184 240 272 293 276 180 236 266 266 217 209 217 218 219 220 223 221 202 177 168 175 173 173 169 172 168 167 161 153 143 137 128 123 84 94 124 134 135 136 129 127 122 116 108 105 109 101 63 48
234 210 224 240 343 43 83 305 279 267 224 234 229 226 218 212 208 199 190 190 185 185 186 186 183 174 168 150 126 107 83 67 67 70 87 134 147 143 140 138 135 135 136 142 142 134 126 126 47
249 234 215 214 175 277 123 280 282 264 272 247 242 233 224 218 206 196 193 193 195 197 187 185 178 170 164 152 152 152 154 169 195 184 177 146 148 147 148 147 142 142 140 149 161 143 130 130 128
221 243 176 190 173 243 293 208 282 307 278 268 253 236 228 216 205 199 196 196 196 187 179 179 170 170 168 163 164 162 164 176 166 145 147 157 148 149 153 151 148 153 154 157 154 140 134 133 144
150 72 59 51 79 262 231 194 274 241 238 262 256 240 223 211 205 203 195 184 186 176 169 169 168 177 173 167 167 170 172 170 161 170 173 179 164 175 167 154 155 159 159 165 165 157 151 149 137
89 93 28 356 359 254 241 206 249 255 241 230 234 236 223 200 194 192 188 187 189 183 180 177 176 184 177 173 176 182 182 177 179 186 187 182 184 200 204 177 171 169 170 165 153 150 156 157 153
179 147 164 208 232 277 285 233 253 267 272 246 219 209 198 193 194 197 196 191 192 194 189 184 186 191 179 182 188 185 179 178 185 188 186 193 199 203 193 181 173 168 161 156 149 146 157 149 158
141 170 169 147 172 261 275 283 299 297 340 358 55 91 194 204 200 199 197 190 192 194 196 193 188 187 183 186 187 186 183 182 187 187 183 195 201 193 181 176 172 166 160 160 153 154 162 148 153
147 146 107 134 171 242 282 274 255 272 279 333 18 263 243 240 216 203 194 191 197 198 194 180 180 186 185 179 186 191 195 192 182 172 182 194 199 188 176 175 172 170 167 161 154 155 155 147 161
111 114 121 134 162 172 250 269 231 232 247 251 255 248 234 226 221 208 200 194 189 179 176 175 176 175 179 183 180 178 184 181 172 175 187 192 195 188 185 183 174 173 171 164 158 166 163 167 176
168 166 149 163 214 185 196 263 280 246 248 249 268 267 252 237 229 210 191 177 163 168 175 183 183 182 190 186 179 180 176 169 167 175 187 184 183 190 188 183 177 177 173 167 168 176 183 183 190
Height
1490 1489 1490 1491 1495 1508 1511 1507 1503 1503 1502 1502 1502 1502 1504 1507 1511 1516 1512 1510 1510 1510 1510 1510 1510 1510 1510 1510 1510 1510 1510 1510 1510 1510 1510 1509 1509 1509 1509 1509 1510 1511 1511 1511 1512 1513 1513 1513 1513
1490 1490 1492 1492 1505 1518 1514 1505 1504 1502 1503 1503 1503 1504 1505 1507 1509 1510 1510 1510 1511 1511 1511 1511 1511 1511 1511 1511 1511 1511 1511 1511 1511 1511 1511 1511 1511 1511 1511 1511 1511 1512 1512 1513 1513 1514 1514 1514 1515
1491 1491 1493 1497 1509 1516 1511 1504 1503 1502 1503 1504 1505 1506 1507 1509 1510 1510 1511 1511 1512 1512 1512 1512 1512 1513 1513 1513 1513 1513 1513 1513 1513 1513 1513 1512 1512 1512 1513 1512 1513 1513 1513 1514 1514 1515 1515 1515 1516
1492 1493 1495 1503 1509 1507 1504 1502 1502 1503 1504 1505 1506 1508 1509 1511 1511 1512 1512 1512 1513 1513 1513 1513 1514 1514 1514 1514 1514 1515 1514 1514 1514 1514 1514 1514 1514 1514 1514 1514 1514 1514 1515 1515 1516 1516 1516 1517 1517
1492 1494 1502 1510 1508 1504 1502 1502 1503 1503 1505 1506 1507 1509 1511 1512 1512 1513 1513 1514 1514 1514 1514 1515 1515 1515 1516 1516 1516 1516 1516 1516 1516 1516 1516 1516 1516 1516 1516 1515 1515 1515 1516 1516 1517 1517 1518 1518 1518
1493 1496 1511 1515 1509 1504 1503 1502 1503 1504 1506 1507 1508 1510 1512 1513 1513 1514 1515 1515 1515 1516 1516 1517 1517 1517 1518 1518 1518 1518 1518 1518 1518 1518 1518 1518 1518 1517 1517 1517 1516 1517 1517 1518 1518 1518 1519 1519 1520
1495 1502 1511 1511 1510 1506 1503 1503 1504 1505 1506 1508 1508 1510 1512 1514 1515 1515 1516 1517 1517 1518 1518 1518 1519 1519 1519 1519 1520 1520 1520 1520 1520 1520 1519 1519 1519 1519 1519 1518 1518 1518 1519 1519 1519 1520 1520 1520 1521
1495 1502 1509 1511 1510 1507 1504 1504 1505 1505 1507 1508 1509 1510 1512 1514 1515 1516 1517 1518 1518 1519 1519 1520 1520 1521 1521 1521 1522 1522 1522 1522 1522 1522 1521 1521 1521 1521 1521 1520 1520 1520 1520 1521 1521 1521 1521 1522 1522
1496 1506 1512 1509 1508 1506 1503 1504 1506 1506 1507 1509 1509 1510 1512 1513 1515 1516 1517 1518 1519 1520 1521 1521 1522 1523 1523 1523 1524 1524 1524 1524 1524 1523 1523 1523 1523 1522 1522 1522 1522 1522 1522 1522 1522 1522 1523 1523 1523
1497 1508 1506 1502 1502 1503 1503 1504 1506 1507 1508 1509 1510 1511 1512 1513 1515 1516 1517 1518 1520 1521 1522 1523 1523 1524 1524 1525 1525 1525 1525 1526 1526 1525 1525 1525 1525 1525 1525 1524 1524 1524 1524 1524 1524 1524 1524 1524 1524
1497 1502 1500 1500 1500 1501 1503 1505 1506 1507 1510 1509 1509 1510 1512 1513 1515 1517 1518 1519 1520 1522 1523 1524 1525 1525 1526 1526 1527 1527 1527 1527 1527 1527 1527 1527 1527 1527 1527 1527 1526 1526 1526 1526 1525 1525 1525 1525 1526
1498 1499 1499 1499 1500 1501 1503 1504 1506 1507 1508 1508 1508 1510 1511 1513 1515 1516 1518 1520 1521 1522 1523 1524 1525 1526 1527 1527 1528 1528 1529 1529 1529 1529 1529 1529 1529 1529 1529 1529 1528 1528 1528 1528 1527 1527 1527 1527 1527
1498 1499 1499 1500 1500 1502 1503 1504 1506 1507 1507 1508 1509 1511 1512 1513 1515 1517 1519 1520 1521 1523 1524 1525 1526 1527 1528 1528 1529 1529 1530 1530 1530 1530 1530 1531 1530 1530 1530 1530 1530 1530 1530 1530 1530 1529 1529 1529 1529
1498 1499 1500 1500 1501 1502 1503 1505 1506 1506 1507 1508 1509 1510 1512 1513 1515 1516 1518 1519 1521 1522 1524 1525 1526 1528 1528 1529 1529 1530 1530 1531 1531 1532 1532 1532 1532 1532 1532 1532 1532 1532 1532 1532 1531 1531 1531 1531 1531
1499 1501 1502 1501 1501 1503 1504 1507 1506 1506 1507 1508 1509 1510 1512 1513 1514 1516 1517 1519 1520 1522 1524 1525 1526 1528 1529 1530 1530 1531 1531 1532 1532 1532 1533 1533 1533 1533 1533 1533 1533 1533 1533 1533 1533 1533 1532 1532 1532
1500 1505 1510 1504 1502 1503 1508 1513 1505 1505 1506 1507 1508 1509 1511 1512 1513 1515 1517 1518 1520 1521 1523 1525 1526 1527 1529 1530 1530 1531 1532 1532 1533 1533 1533 1534 1534 1534 1534 1534 1534 1534 1534 1534 1534 1534 1534 1534 1533
1508 1513 1512 1507 1503 1503 1507 1510 1504 1504 1505 1505 1506 1508 1509 1510 1512 1514 1515 1517 1519 1521 1522 1524 1526 1527 1529 1530 1530 1531 1532 1533 1533 1534 1534 1534 1534 1535 1535 1534 1535 1535 1535 1535 1535 1535 1535 1535 1534
1514 1513 1511 1510 1504 1505 1508 1508 1504 1504 1504 1504 1505 1506 1507 1508 1509 1511 1513 1516 1518 1520 1522 1524 1525 1527 1528 1530 1530 1531 1532 1533 1533 1534 1534 1534 1535 1535 1535 1535 1535 1535 1535 1536 1536 1535 1536 1535 1535
1506 1510 1512 1508 1503 1505 1508 1507 1504 1503 1503 1503 1503 1504 1505 1506 1508 1510 1512 1514 1516 1519 1520 1522 1524 1526 1527 1528 1529 1530 1531 1532 1533 1534 1534 1535 1535 1535 1535 1535 1535 1536 1536 1536 1536 1536 1536 1536 1536
1505 1510 1511 1507 1502 1505 1508 1507 1502 1501 1501 1501 1501 1502 1502 1504 1506 1508 1510 1512 1514 1516 1518 1521 1523 1524 1526 1527 1529 1530 1531 1532 1533 1533 1534 1534 1535 1535 1535 1535 1536 1536 1536 1536 1536 1536 1536 1536 1536
1506 1508 1508 1508 1505 1505 1507 1509 1504 1500 1499 1499 1499 1499 1500 1501 1502 1505 1507 1509 1512 1514 1516 1519 1521 1523 1525 1526 1528 1529 1530 1531 1532 1532 1533 1534 1534 1535 1535 1535 1536 1536 1536 1536 1536 1537 1537 1537 1537
1508 1500 1502 1505 1511 1516 1511 1522 1507 1501 1499 1497 1497 1497 1497 1498 1500 1502 1504 1507 1509 1512 1515 1517 1519 1521 1523 1525 1526 1527 1528 1529 1530 1531 1532 1533 1533 1534 1534 1535 1535 1536 1536 1536 1536 1537 1537 1537 1537
1500 1497 1501 1504 1510 1516 1515 1521 1512 1502 1500 1496 1494 1494 1494 1495 1497 1499 1501 1503 1507 1510 1512 1515 1517 1519 1521 1523 1524 1526 1527 1528 1529 1530 1531 1532 1532 1533 1533 1534 1534 1535 1535 1536 1536 1536 1536 1537 1537
1496 1501 1505 1511 1516 1524 1516 1520 1515 1504 1498 1494 1491 1491 1492 1493 1495 1497 1499 1502 1505 1508 1511 1513 1515 1517 1519 1521 1522 1524 1525 1526 1527 1528 1529 1530 1531 1531 1532 1533 1533 1534 1534 1535 1535 1535 1536 1536 1536
1498 1510 1524 1525 1531 1527 1514 1516 1511 1495 1491 1490 1489 1489 1489 1491 1493 1495 1497 1499 1502 1505 1508 1510 1512 1514 1516 1518 1520 1521 1523 1524 1525 1526 1527 1528 1529 1530 1530 1531 1532 1532 1533 1534 1534 1534 1535 1535 1535
1500 1507 1524 1531 1533 1526 1515 1516 1503 1490 1488 1487 1487 1487 1488 1490 1491 1493 1495 1497 1500 1502 1505 1507 1510 1512 1514 1516 1517 1519 1520 1522 1523 1524 1525 1526 1527 1528 1529 1530 1530 1531 1531 1532 1533 1533 1533 1534 1534
1501 1506 1506 1519 1522 1526 1520 1511 1498 1488 1487 1487 1486 1486 1487 1488 1490 1491 1493 1495 1498 1500 1503 1505 1507 1509 1511 1513 1515 1516 1518 1519 1520 1521 1523 1524 1525 1526 1527 1528 1529 1529 1530 1530 1531 1532 1532 1532 1533
1495 1501 1512 1519 1527 1529 1520 1513 1506 1493 1489 1488 1487 1486 1486 1487 1489 1490 1492 1494 1496 1498 1500 1503 1505 1507 1508 1510 1512 1514 1515 1516 1518 1519 1520 1522 1523 1524 1525 1526 1527 1527 1528 1529 1529 1530 1530 1531 1531
1500 1503 1508 1516 1518 1526 1526 1515 1493 1491 1488 1488 1486 1486 1486 1487 1487 1488 1490 1492 1494 1496 1498 1500 1502 1504 1506 1507 1509 1511 1512 1513 1515 1516 1518 1519 1520 1521 1522 1523 1524 1525 1526 1527 1527 1528 1528 1528 1528
1493 1498 1505 1514 1517 1519 1521 1513 1487 1486 1485 1485 1485 1485 1485 1485 1486 1487 1488 1490 1492 1494 1496 1498 1499 1501 1503 1505 1506 1507 1509 1510 1512 1513 1515 1516 1517 1518 1519 1521 1522 1523 1524 1524 1525 1525 1526 1526 1526